Showing default

COSMOS 2091, 20736

Orbit data source: Space-Track

COSMOS 2091, 20736 is a payload satellite owned by UNKS (CIS) in LEO that was launched on Wed, 08 Aug 1990 UTC via a TSIKLON-3 launch vehicle from the Plesetsk Missile And Space Complex (PKMTR). Payload-class satellites include a variety of spacecraft equipped with specific instruments for various scientific and technological missions. These include communications satellites like Starlink; space stations such as the ISS; scientific satellites like the Hubble; Earth observation satellites from companies like Planet Labs, Umbra, and HawkEye 360; GPS; miniature CubeSats for education and research; and military/defense satellites.

Loading next visibility...
Identifier
20736, 1990-070B
Orbit
LEO
Last TLE update
13 hours ago
Origin
Manufacturer
NPO PM
Mission
Defense Communications
Bus & Motor
STRELA-3, Unknown motor
Mass
225 kg wet, 225 kg dry
Launch date (UTC)
1990-08-08 (35 years ago)
Launch vehicle
TSIKLON-3
Launch site
Plesetsk Missile And Space Complex (PKMTR)
Object type
Payload
Rocket body
Debris
Shape & HBR
Cyl, 1.6 m
Radar Cross Section
1.257 m², Large (>1 m²)

Expand to show TLE details & history

TLE from 13 hours ago
0 COSMOS 2091
1 20736U 90070B   25183.96557976  .00000019  00000-0  44330-4 0  9995
2 20736  82.5765 191.1101 0003737 159.4198 264.1539 12.62548927608240
Epoch: 2025-07-02T23:10Z
TLE epoch observation values (Epoch: 2025-07-02T23:10:26.091Z)
Latitude
62.66701°
Longitude
-63.21045°
Altitude
1,423.46 km
Speed
7.155 km/s
True Right ascension
13h 42m 32s
True Declination
62° 32' 19"
Sunlit
Object was in daylight at epoch
Visualization orbit readout
Latitude
-69.77053°
Longitude
-98.67208°
Altitude
1,440.421 km
Speed
7.14 km/s
Apparent Right ascension
11h 28m 41s
Apparent Declination
-56° 15' 10"
Sunlit
Object is in daylight
Visualization observer readout
Local Sidereal Time
23:33:06
Azimuth
177.82° S
Elevation
-73.647°
Doppler factor
1
Orbital elements
Apogee altitude
1,412.672 km
Perigee altitude
1,406.851 km
Semi-major axis
7,787.899 km
Eccentricity
0.00037
Inclination
82.5765°
RAAN
191.1101°
Arg. of periapsis
159.4198°
True anomaly
Unknown
Mean anomaly
264.1539°
Eccentric anomaly
Unknown
Mean motion
3.158 °/min
Orbital period
114 mins
BSTAR
0.00004433
Loading maneuver chart data...
Loading SW <> Apogee altitude chart data...
Loading historical data...
Loading historical data...
Loading historical data...
Loading historical data...
Loading historical data...
Loading historical data...
Loading historical data...

COSMOS 2091 Visibility forecast

Observer location: undefined°, undefined°

Span
Click to sort rows by Start time (UTC) header in descending order
Start Az.
Max El. time (UTC)
Max El. Az.
Max El.
End time (UTC)
End Az.
16 mins2025-07-03 12:45:33.413Z346.813° N2025-07-03 12:53:33.413Z262.8° W42.736°2025-07-03 13:01:33.413Z187.194° SSW
11 mins2025-07-03 23:41:33.413Z124.475° SE2025-07-03 23:46:33.413Z82.319° E22.229°2025-07-03 23:52:33.413Z33.992° NE
14 mins2025-07-04 01:34:33.413Z201.09° SSW2025-07-04 01:40:33.413Z268.369° W42.541°2025-07-04 01:48:33.413Z1.796° NNE
11 mins2025-07-04 11:35:33.413Z5.647° NNE2025-07-04 11:42:33.413Z83.713° E37.713°2025-07-04 11:46:33.413Z137.094° SSE
|